Location: Observatoire
(46.1952°N, 5.3391°E)
Time: 23:41:12
(UTC+01:00)

Courier 1B Rocket - Pass Details

Date: 16 February 2026
Orbit: 920 x 1201 km, 28.2° (Epoch: 11 March)

Event Time Altitude Azimuth Distance (km) Brightness Sun altitude
Rises 20:52:33 0° 221° (SW) 3,569 8.3 -29.3°
Reaches altitude 10° 20:56:38 10° 196° (SSW) 2,663 7.3 -30.0°
Enters shadow 20:57:14 11° 190° (S) 2,583 7.2 -30.1°
Maximum altitude 20:59:33 13° 168° (SSE) 2,455 - -30.5°
Drops below altitude 10° 21:02:31 10° 141° (SE) 2,737 - -31.0°
Sets 21:06:51 0° 116° (ESE) 3,754 - -31.7°
